Regional Weather Roundup
Issued by NWS

Home | Current Version | Previous Version | Graphics & Text | Print | Product List | Glossary On
Versions: 1 2 3 4 5 6 7 8 9 10 11 12 13 14 15 16 17 18 19 20 21 22 23 24 25 26 27 28 29 30 31 32 33 34 35 36 37 38 39 40 41 42 43 44 45 46 47 48 49 50
000
ASUS44 KMEG 062200
RWRTN
TENNESSEE HOURLY STATE WEATHER ROUNDUP
NATIONAL WEATHER SERVICE MEMPHIS TN
400 PM CST FRI MAR 06 2015

TNZ002-004-019-021-049-052-054-088>092-062300-
WEST TENNESSEE

CITY           SKY/WX    TMP DP  RH WIND       PRES   REMARKS
MEMPHIS INTL   SUNNY     40  12  32 CALM      30.50F
NWS MEMPHIS      N/A     41 N/A N/A MISG        N/A
JACKSON        SUNNY     37   7  28 CALM      30.50F
DYERSBURG      SUNNY     34   7  32 S6        30.51F WCI  29
UNION CITY     SUNNY     28  16  59 S3        30.48F
PARIS          SUNNY     30   9  40 SW7       30.47F WCI  23
LEXINGTON      SUNNY     36  10  35 S5        30.47S WCI  32
SAVANNAH       SUNNY     37  10  32 N3        30.49S
$$

TNZ008-025-027-028-033-062-065-066-062300-
NORTH MIDDLE TENNESSEE

CITY           SKY/WX    TMP DP  RH WIND       PRES   REMARKS
NASHVILLE      SUNNY     37  16  42 NW3       30.48F
CLARKSVILLE    SUNNY     33  15  47 E3        30.47F
COOKEVILLE     SUNNY     34  19  55 CALM      30.43F
CROSSVILLE     SUNNY     35  16  45 W7        30.38F WCI  29
$$

TNZ061-075-076-078-094-096-097-062300-
SOUTH MIDDLE TENNESSEE

CITY           SKY/WX    TMP DP  RH WIND       PRES   REMARKS
FAYETTEVILLE   SUNNY     34  21  60 N5          N/A  WCI  30
TULLAHOMA      SUNNY     34  18  51 W6          N/A  WCI  29
WINCHESTER     SUNNY     36  18  48 N3        30.44S
COLUMBIA         N/A     37  14  38 VRB5      30.45S WCI  34
SHELBYVILLE    SUNNY     36  21  55 NW5       30.47F WCI  32
$$

TNZ017-018-042-046-047-062300-
NORTHEAST TENNESSEE

CITY           SKY/WX    TMP DP  RH WIND       PRES   REMARKS
TRI CITIES     MOSUNNY   37  20  50 W7        30.38F WCI  32
ELIZABETHTON   CLEAR     36  19  51 W8        30.36F WCI  29
$$

TNZ012-013-036-069-073-074-062300-
CENTRAL EAST TENNESSEE

CITY           SKY/WX    TMP DP  RH WIND       PRES   REMARKS
KNOXVILLE      MOSUNNY   38  19  46 W6        30.42F WCI  33
OAK RIDGE      SUNNY     41  14  33 VRB5      30.43F
GATLINBURG     CLEAR     39  21  48 W9        30.41S WCI  33
$$

TNZ083-085-099-062300-
SOUTHEAST TENNESSEE

CITY           SKY/WX    TMP DP  RH WIND       PRES   REMARKS
CHATTANOOGA    MOSUNNY   44  23  43 VRB3      30.42F
$$

SKY/WX REPORTED AS FAIR MEANS FEW OR NO CLOUDS BELOW
12 THOUSAND FEET.



USA.gov is the U.S. government's official web portal to all federal, state and local government web resources and services.